IRIDIUM 8 [+] 1 24792U 97020A 10074.31203181 .00000141 00000-0 43190-4 0 9798 2 24792 86.4005 346.6112 0002406 86.6337 273.5123 14.34215247673245 IRIDIUM 7 [+] 1 24793U 97020B 10074.30568972 .00000181 00000-0 57498-4 0 9734 2 24793 86.4009 346.7587 0002415 84.7692 275.3774 14.34215349673245 IRIDIUM 6 [+] 1 24794U 97020C 10074.29934753 .00000218 00000-0 70651-4 0 7721 2 24794 86.4003 346.7452 0002343 77.2922 282.8532 14.34215467673240 IRIDIUM 5 [+] 1 24795U 97020D 10074.29300489 .00000182 00000-0 57920-4 0 1206 2 24795 86.4008 346.8955 0001168 56.0523 304.0792 14.34215043673325 IRIDIUM 4 [+] 1 24796U 97020E 10074.31837656 .00000176 00000-0 55815-4 0 9900 2 24796 86.4004 346.5028 0002455 83.6995 276.4475 14.34215166673268 IRIDIUM 914 [-] 1 24836U 97030A 10074.33355418 .00000107 00000-0 29201-4 0 5572 2 24836 86.3962 10.2298 0002951 108.8754 251.2766 14.37467585667975 IRIDIUM 12 [+] 1 24837U 97030B 10074.37888434 .00000182 00000-0 57968-4 0 9956 2 24837 86.3975 18.0283 0002488 83.8037 276.3443 14.34216728667003 IRIDIUM 10 [+] 1 24839U 97030D 10074.36620640 .00000157 00000-0 48968-4 0 9930 2 24839 86.3976 18.0290 0002504 84.9847 275.1645 14.34219903667014 IRIDIUM 13 [+] 1 24840U 97030E 10074.38522312 .00000183 00000-0 58368-4 0 9575 2 24840 86.3979 18.1019 0002530 81.2826 278.8657 14.34217151667000 IRIDIUM 16 [-] 1 24841U 97030F 10074.29689038 .00000136 00000-0 40702-4 0 9903 2 24841 86.4052 18.7196 0001895 32.2099 327.9209 14.35328770667164 IRIDIUM 911 [-] 1 24842U 97030G 10074.39672349 .00000137 00000-0 34915-4 0 6482 2 24842 86.4469 20.7807 0012542 238.8546 121.1429 14.43224201670403 IRIDIUM 15 [+] 1 24869U 97034A 10074.37599940 .00000002 00000-0 -63474-5 0 274 2 24869 86.3915 49.7099 0002442 86.1334 274.0154 14.34214478663970 IRIDIUM 17 [-] 1 24870U 97034B 10074.41852745 .00000139 00000-0 42459-4 0 9959 2 24870 86.3917 49.5481 0002388 75.3298 284.8171 14.34474455664001 IRIDIUM 920 [-] 1 24871U 97034C 10074.37186762 .00000109 00000-0 29498-4 0 5988 2 24871 86.3950 42.0476 0013994 56.9550 303.3002 14.38103697665206 IRIDIUM 18 [+] 1 24872U 97034D 10074.33794448 .00000047 00000-0 98838-5 0 9868 2 24872 86.3933 49.8785 0002410 83.5361 276.6118 14.34214595663960 IRIDIUM 921 [-] 1 24873U 97034E 10074.28931571 .00000605 00000-0 49517-4 0 9705 2 24873 86.3828 225.4780 0006715 301.1407 58.9166 14.97330856689772 IRIDIUM 26 [+] 1 24903U 97043A 10074.11482374 -.00000037 00000-0 -20308-4 0 858 2 24903 86.3902 283.5435 0002328 85.0291 275.1164 14.34216272657879 IRIDIUM 25 [+] 1 24904U 97043B 10074.21630063 -.00000022 00000-0 -15056-4 0 9767 2 24904 86.3903 283.4459 0002254 84.9657 275.1797 14.34217503657856 IRIDIUM 46 [+] 1 24905U 97043C 10074.15921490 .00000005 00000-0 -51813-5 0 9995 2 24905 86.3907 283.7762 0002316 84.1853 275.9599 14.34217973657859 IRIDIUM 23 [+] 1 24906U 97043D 10074.13384629 -.00000027 00000-0 -16772-4 0 9989 2 24906 86.3899 283.4098 0002255 86.5114 273.6337 14.34217616657856 IRIDIUM 22 [+] 1 24907U 97043E 10074.19727048 -.00000038 00000-0 -20695-4 0 9679 2 24907 86.3914 283.8137 0002309 86.3023 273.8431 14.34217710657863 DUMMY MASS 1 [-] 1 24925U 97048A 10074.77017079 .00000100 00000-0 87340-5 0 4746 2 24925 86.3398 183.9502 0009595 49.9308 310.2755 14.83852167678403 DUMMY MASS 2 [-] 1 24926U 97048B 10074.33877882 .00000086 00000-0 70396-5 0 4662 2 24926 86.3393 184.8360 0010580 53.6964 306.5247 14.83632704678246 IRIDIUM 29 [+] 1 24944U 97051A 10074.20712537 .00000144 00000-0 44507-4 0 9379 2 24944 86.3975 315.0837 0002298 82.7732 277.3711 14.34218950654437 IRIDIUM 32 [+] 1 24945U 97051B 10074.22615536 .00000150 00000-0 46558-4 0 9480 2 24945 86.3969 315.0920 0002345 82.9250 277.2211 14.34218753654451 IRIDIUM 33 [-] 1 24946U 97051C 10074.22311131 .00000163 00000-0 52948-4 0 716 2 24946 86.3888 315.1856 0006300 221.4269 138.6448 14.32510839654399 IRIDIUM 28 [-] 1 24948U 97051E 10074.25447451 .00000170 00000-0 53706-4 0 8175 2 24948 86.3974 315.2183 0001922 81.1316 279.0090 14.34298977654436 IRIDIUM 30 [+] 1 24949U 97051F 10074.21981166 .00000211 00000-0 68282-4 0 9888 2 24949 86.3969 315.1510 0002358 83.2256 276.9196 14.34219016654434 IRIDIUM 31 [+] 1 24950U 97051G 10074.28323416 .00000093 00000-0 26321-4 0 9656 2 24950 86.3971 315.1192 0002353 83.7282 276.4176 14.34219014654457 IRIDIUM 19 [+] 1 24965U 97056A 10074.33740482 .00000188 00000-0 60074-4 0 9523 2 24965 86.4018 346.5800 0002445 84.9638 275.1832 14.34215094652604 IRIDIUM 35 [+] 1 24966U 97056B 10074.28032048 .00000176 00000-0 55645-4 0 9873 2 24966 86.4009 346.6260 0002326 83.7261 276.4203 14.34215314652570 IRIDIUM 36 [-] 1 24967U 97056C 10074.38559566 .00000064 00000-0 15935-4 0 9328 2 24967 86.4032 346.6475 0002282 87.7211 272.4235 14.34319835652737 IRIDIUM 37 [+] 1 24968U 97056D 10074.25494754 .00000176 00000-0 55703-4 0 9604 2 24968 86.4005 346.7438 0002400 85.7716 274.3749 14.34215569652570 IRIDIUM 34 [+] 1 24969U 97056E 10074.27397655 .00000215 00000-0 69583-4 0 9390 2 24969 86.4007 346.6795 0002368 82.8874 277.2602 14.34215606652576 IRIDIUM 43 [+] 1 25039U 97069A 10074.33158192 .00000058 00000-0 13644-4 0 9517 2 25039 86.3929 49.9016 0002351 85.1708 274.9771 14.34215540646368 IRIDIUM 41 [+] 1 25040U 97069B 10074.32524294 .00000011 00000-0 -31648-5 0 9412 2 25040 86.3918 49.8072 0002346 83.9176 276.2290 14.34215009646369 IRIDIUM 40 [+] 1 25041U 97069C 10074.35061125 .00000069 00000-0 17557-4 0 9723 2 25041 86.3917 49.7613 0002439 84.5908 275.5578 14.34215430646383 IRIDIUM 39 [+] 1 25042U 97069D 10074.28717254 -.00000047 00000-0 -23945-4 0 9419 2 25042 86.3920 49.9662 0002263 78.8539 281.2915 14.34214171646352 IRIDIUM 38 [-] 1 25043U 97069E 10074.40334534 .00000122 00000-0 36085-4 0 9691 2 25043 86.3915 49.0498 0001980 69.3403 290.8015 14.34726714646498 IRIDIUM 42 [+] 1 25077U 97077A 10074.34426420 .00000089 00000-0 24720-4 0 9624 2 25077 86.3923 49.8457 0002403 84.6562 275.4914 14.34215566642226 IRIDIUM 44 [-] 1 25078U 97077B 10074.37029659 .00000153 00000-0 45355-4 0 4502 2 25078 86.3924 44.9097 0002391 28.6299 331.5037 14.36602014642865 IRIDIUM 45 [+] 1 25104U 97082A 10074.15287232 .00000019 00000-0 -26010-6 0 8940 2 25104 86.3894 283.4883 0002303 81.7555 278.3892 14.34217964640399 IRIDIUM 24 [-] 1 25105U 97082B 10074.10871379 .00000138 00000-0 38720-4 0 5067 2 25105 86.3863 273.3073 0014030 62.8245 297.4380 14.38316479641593 IRIDIUM 47 [+] 1 25106U 97082C 10074.16555933 .00000006 00000-0 -47858-5 0 8880 2 25106 86.3892 283.4233 0002298 80.3112 279.8334 14.34217758640393 IRIDIUM 49 [+] 1 25108U 97082E 10074.24801276 .00000078 00000-0 20706-4 0 9077 2 25108 86.3907 283.4187 0002378 85.8482 274.2980 14.34218033640415 IRIDIUM 52 [+] 1 25169U 98010A 10074.27740184 .00000194 00000-0 62199-4 0 6921 2 25169 86.3987 18.2419 0002444 82.8930 277.2556 14.34217015631827 IRIDIUM 56 [+] 1 25170U 98010B 10074.34082913 .00000160 00000-0 50037-4 0 5830 2 25170 86.3987 18.2677 0002461 84.4336 275.7150 14.34216567631815 IRIDIUM 54 [+] 1 25171U 98010C 10074.30277484 .00000156 00000-0 48625-4 0 9161 2 25171 86.3983 18.2363 0002466 86.6665 273.4814 14.34216503631977 IRIDIUM 50 [+] 1 25172U 98010D 10074.33448326 .00000084 00000-0 23026-4 0 9438 2 25172 86.3992 18.1933 0002473 79.1944 280.9518 14.34216544631817 IRIDIUM 53 [+] 1 25173U 98010E 10074.28374629 .00000201 00000-0 64816-4 0 9216 2 25173 86.3983 18.2234 0002472 83.2985 276.8506 14.34216789631815 IRIDIUM 51 [S] 1 25262U 98018A 10074.27396993 .00000194 00000-0 52040-4 0 353 2 25262 86.4522 346.8133 0002500 79.1724 280.9763 14.42959256630462 IRIDIUM 61 [+] 1 25263U 98018B 10074.26129327 .00000183 00000-0 58310-4 0 8811 2 25263 86.4003 346.7160 0002399 83.7100 276.4377 14.34215210626902 IRIDIUM 55 [+] 1 25272U 98019A 10074.19443981 .00000174 00000-0 54921-4 0 8734 2 25272 86.3965 315.0340 0002297 84.1264 276.0189 14.34219111626091 IRIDIUM 57 [+] 1 25273U 98019B 10074.16907063 .00000144 00000-0 44250-4 0 9123 2 25273 86.3972 315.2337 0002367 82.5839 277.5623 14.34218828626099 IRIDIUM 58 [+] 1 25274U 98019C 10074.17541445 .00000156 00000-0 48467-4 0 7252 2 25274 86.3973 315.3502 0002359 83.6758 276.4708 14.34218781626099 IRIDIUM 59 [+] 1 25275U 98019D 10074.18175682 .00000019 00000-0 -33963-6 0 5704 2 25275 86.3982 315.3443 0002523 66.1322 294.0139 14.34217692626094 IRIDIUM 60 [+] 1 25276U 98019E 10074.25786855 .00000136 00000-0 41384-4 0 9508 2 25276 86.3962 315.0356 0002286 84.4517 275.6941 14.34218583626106 IRIDIUM 62 [+] 1 25285U 98021A 10074.42850758 .00000036 00000-0 59131-5 0 9143 2 25285 86.3885 251.7679 0002302 85.4363 274.7102 14.34216214625087 IRIDIUM 63 [+] 1 25286U 98021B 10074.43484951 .00000045 00000-0 91517-5 0 9293 2 25286 86.3886 251.8566 0002281 82.8628 277.2834 14.34216310625083 IRIDIUM 64 [+] 1 25287U 98021C 10074.09235303 -.00000056 00000-0 -27017-4 0 8781 2 25287 86.3885 251.9313 0002302 86.0331 274.1127 14.34215498625015 IRIDIUM 65 [+] 1 25288U 98021D 10074.37776439 -.00000049 00000-0 -24604-4 0 9145 2 25288 86.3885 251.7608 0002258 73.5367 286.6078 14.34215891625077 IRIDIUM 66 [+] 1 25289U 98021E 10074.38410848 .00000016 00000-0 -12233-5 0 8717 2 25289 86.3890 251.6843 0002314 83.0068 277.1390 14.34216102625079 IRIDIUM 67 [+] 1 25290U 98021F 10074.11138151 -.00000003 00000-0 -82049-5 0 6980 2 25290 86.3886 251.8938 0002324 82.9753 277.1706 14.34215693625045 IRIDIUM 68 [+] 1 25291U 98021G 10074.46656572 .00000006 00000-0 -50986-5 0 9127 2 25291 86.3886 251.8148 0002448 80.5320 279.6159 14.34215958625065 IRIDIUM 69 [-] 1 25319U 98026A 10074.15143172 .00000144 00000-0 41813-4 0 7528 2 25319 86.3936 279.4727 0002428 31.3222 328.8119 14.37134899622094 IRIDIUM 71 [-] 1 25320U 98026B 10074.49987591 .00000151 00000-0 43767-4 0 4499 2 25320 86.3912 276.5810 0004341 63.3673 296.7977 14.37720361622441 IRIDIUM 70 [+] 1 25342U 98032A 10074.35239234 .00000068 00000-0 17348-4 0 9329 2 25342 86.3897 251.9816 0002539 76.0580 284.0899 14.34216604619159 IRIDIUM 72 [+] 1 25343U 98032B 10074.40948555 -.00000011 00000-0 -11080-4 0 9203 2 25343 86.3888 251.7421 0002341 80.3745 279.7719 14.34214809619160 IRIDIUM 73 [-] 1 25344U 98032C 10074.37277478 .00000167 00000-0 40096-4 0 8140 2 25344 86.4376 241.3336 0001616 65.6202 294.5171 14.47174351623941 IRIDIUM 74 [S] 1 25345U 98032D 10074.08613129 -.00000010 00000-0 -90918-5 0 9482 2 25345 86.4396 252.0481 0002455 83.4002 276.7476 14.42949389620451 IRIDIUM 75 [+] 1 25346U 98032E 10074.34605675 -.00000006 00000-0 -93258-5 0 9530 2 25346 86.3895 251.9267 0002316 80.0175 280.1280 14.34215762619727 IRIDIUM 3 [+] 1 25431U 98048A 10074.33046655 -.00000086 00000-0 -37671-4 0 8755 2 25431 86.3908 283.5568 0002621 72.4453 287.7019 14.34217279605661 IRIDIUM 76 [+] 1 25432U 98048B 10074.20995891 -.00000029 00000-0 -17384-4 0 8056 2 25432 86.3912 283.4465 0003004 89.8330 270.3206 14.34217608605633 IRIDIUM 82 [+] 1 25467U 98051A 10074.31890256 -.00000014 00000-0 -11946-4 0 413 2 25467 86.3932 49.8812 0002075 61.4679 298.6745 14.34214818606667 IRIDIUM 81 [+] 1 25468U 98051B 10074.31254153 .00000098 00000-0 27961-4 0 8696 2 25468 86.3916 49.6987 0002393 80.7408 279.4072 14.34213644602884 IRIDIUM 80 [+] 1 25469U 98051C 10074.36331733 .00000018 00000-0 -63107-6 0 8767 2 25469 86.3917 49.8249 0002488 84.8093 275.3403 14.34215846602899 IRIDIUM 77 [+] 1 25471U 98051E 10074.29988407 .00000002 00000-0 -64839-5 0 406 2 25471 86.3911 49.6962 0003472 69.9558 290.2018 14.34214624608088 IRIDIUM 2 [-] 1 25527U 98066A 10074.18979097 .00000832 00000-0 67387-4 0 3354 2 25527 85.5631 126.2849 0008468 315.8564 44.1975 14.98223658618802 IRIDIUM 86 [+] 1 25528U 98066B 10074.32814408 .00000114 00000-0 33806-4 0 950 2 25528 86.3974 17.9163 0002778 69.1881 290.9615 14.34216418599419 IRIDIUM 84 [+] 1 25530U 98066D 10074.29008464 .00000216 00000-0 70180-4 0 7491 2 25530 86.3973 18.0464 0002430 83.0710 277.0773 14.34217426597046 IRIDIUM 83 [+] 1 25531U 98066E 10074.32180191 .00000145 00000-0 44867-4 0 8781 2 25531 86.3980 18.0558 0002481 85.2121 274.9361 14.34216519594403 IRIDIUM 20 [+] 1 25577U 98074A 10074.17190110 -.00000014 00000-0 -12059-4 0 7891 2 25577 86.3897 283.4221 0002298 87.3699 272.7754 14.34217739588460 IRIDIUM 11 [S] 1 25578U 98074B 10074.14828117 .00000024 00000-0 48596-6 0 62 2 25578 86.5099 283.6633 0002442 82.8588 277.2897 14.54938018596946 IRIDIUM 14 [S] 1 25777U 99032A 10074.35081313 .00000086 00000-0 15134-4 0 9753 2 25777 86.5071 251.8340 0002445 75.3405 284.8079 14.54933456571352 IRIDIUM 21 [+] 1 25778U 99032B 10074.33337374 -.00000223 00000-0 -86598-4 0 8636 2 25778 86.3885 251.8523 0004124 98.9230 261.2434 14.34214290568165 IRIDIUM 91 [+] 1 27372U 02005A 10074.16272143 .00000111 00000-0 32497-4 0 4601 2 27372 86.3981 315.4052 0001321 263.5728 96.5310 14.34218569431654 IRIDIUM 90 [S] 1 27373U 02005B 10074.34876987 .00000208 00000-0 56222-4 0 4292 2 27373 86.4499 17.8894 0005619 146.8041 213.3527 14.42949863429093 IRIDIUM 94 [S] 1 27374U 02005C 10074.33373199 .00000230 00000-0 37566-4 0 5352 2 27374 86.5781 314.8601 0002465 83.4008 276.7469 14.66249698432895 IRIDIUM 95 [+] 1 27375U 02005D 10074.20078407 .00000125 00000-0 37515-4 0 4371 2 27375 86.3974 315.1906 0002435 82.0321 278.1141 14.34218753430940 IRIDIUM 96 [S] 1 27376U 02005E 10074.20345722 -.00000933 00000-0 -17383-3 0 5267 2 27376 86.5773 314.8594 0002441 83.5654 276.5804 14.66241708432874 IRIDIUM 97 [+] 1 27450U 02031A 10074.28665761 .00000203 00000-0 65272-4 0 3453 2 27450 86.4004 346.8691 0000929 221.9017 138.2105 14.34215152410273 IRIDIUM 98 [S] 1 27451U 02031B 10074.30474964 .00000096 00000-0 22734-4 0 3872 2 27451 86.4458 50.0825 0001570 311.1146 48.9933 14.42948684409948